SCP
-0 0 0 -0 0 0 0 0 0 0 0 0 0 0 0 0 0 0 0 0 0 -0 -0 -0 -0 -0 -0 -0 -0 -0 -0 -0 -0 -0 0 0 0 0 0 0 0 -0 0 0 0 0 0 0 0
0 0 -0 0 0 0 0 -0 0 0 0 0 0 0 0 0 0 0 0 0 0 -0 -0 -0 -0 -0 -0 -0 -0 -0 -0 -0 -0 -0 -0 -0 0 0 0 0 -0 -0 0 0 0 0 0 0 0
-0 -0 0 0 0 0 0 0 0 0 0 0 0 0 0 0 0 0 0 0 0 -0 -0 -0 -0 -0 -0 -0 -0 -0 -0 -0 -0 -0 -0 -0 -0 0 0 0 0 0 0 0 0 0 0 0 0
0 -0 0 0 0 0 0 0 0 0 0 0 0 0 0 0 0 0 0 0 0 0 -0 -0 -1 -1 -0 -0 -0 -0 -0 -0 -0 -0 -0 -0 -0 -0 0 0 0 0 0 0 0 0 0 0 0
-0 0 0 0 0 0 0 0 0 0 0 0 0 0 0 0 0 0 0 0 -0 0 0 -0 -0 -1 -1 -0 -0 -0 0 -0 -0 -0 -0 -0 -0 0 0 0 0 0 0 0 0 0 0 0 0
0 0 0 0 0 0 0 0 0 0 0 0 0 0 0 0 0 0 0 0 0 0 0 -0 -0 -0 -0 -0 -0 -0 -0 0 0 0 0 -0 0 0 0 0 0 0 0 0 0 0 0 0 0
0 0 0 0 0 0 0 0 0 0 0 0 0 0 0 0 0 0 0 0 0 0 0 0 0 0 -0 -0 -0 -0 -0 0 0 0 0 0 0 0 0 0 0 0 0 0 0 0 0 0 0
0 0 0 0 0 0 0 0 0 0 0 0 0 0 0 0 0 0 0 0 0 0 0 0 0 0 0 0 0 0 0 0 0 0 0 0 0 0 0 0 0 0 0 0 0 0 0 0 0
0 0 0 0 0 0 0 0 0 0 0 0 0 0 0 0 0 0 0 0 0 0 0 0 0 0 0 0 0 0 0 0 0 0 0 0 0 0 0 0 0 0 0 0 0 0 0 0 0
0 0 0 0 0 0 0 0 0 0 0 0 0 0 0 0 0 0 0 0 0 0 0 0 0 0 0 0 0 0 0 0 0 0 0 0 0 0 0 0 0 0 0 0 0 0 0 0 0
0 0 0 0 0 0 0 0 0 0 0 0 0 0 0 0 0 0 0 0 0 0 0 0 0 0 0 0 0 0 0 0 0 0 0 0 0 0 0 0 0 0 0 0 0 0 0 0 0
0 0 0 0 0 0 0 0 0 0 0 0 0 0 0 0 0 0 0 0 0 0 0 0 0 0 0 0 0 0 0 0 0 0 0 0 0 0 0 0 0 0 0 0 0 0 0 0 0
0 0 0 0 0 0 0 0 0 0 0 0 0 0 0 0 0 0 0 0 0 0 0 0 0 0 0 0 0 0 0 0 0 0 0 0 0 0 0 0 0 0 0 0 0 0 0 0 0
0 0 0 0 0 0 0 0 0 0 0 0 0 0 0 0 0 0 0 0 0 0 0 0 0 0 0 0 0 0 0 0 0 0 0 0 0 0 0 0 0 0 0 0 0 0 0 0 0
0 0 0 0 0 0 0 0 0 0 0 0 0 0 0 0 0 0 0 0 0 0 0 0 0 0 0 0 0 0 0 0 0 0 0 0 0 0 0 0 0 0 0 0 0 0 0 0 0
0 0 0 0 0 0 0 0 0 0 0 0 0 -0 0 0 0 0 0 0 0 0 0 0 0 0 0 0 0 0 0 0 0 0 0 0 0 0 0 0 0 0 0 0 0 0 0 0 0
0 0 0 0 0 0 0 0 0 0 0 0 0 0 0 0 0 0 0 0 0 0 0 0 0 0 0 0 0 0 0 0 0 0 0 0 0 0 0 0 0 0 0 0 0 0 0 0 0
0 0 0 0 0 0 0 0 0 0 0 0 0 0 0 0 0 0 0 0 0 0 0 0 0 0 0 0 0 0 0 0 0 0 0 0 0 0 0 0 0 0 0 0 0 0 0 0 0
0 0 0 0 0 0 0 0 0 0 0 0 0 0 0 0 0 0 0 0 0 0 0 0 0 0 0 0 0 0 0 0 0 0 0 0 0 0 0 0 0 0 0 0 0 0 0 0 0
0 0 0 0 0 0 0 0 0 0 0 0 0 0 0 0 0 0 0 0 0 0 0 0 0 0 0 0 0 0 0 0 0 0 0 0 0 0 0 0 0 0 0 0 0 0 0 0 0
0 0 0 0 0 0 0 0 0 0 0 0 0 0 0 0 0 0 0 0 0 0 0 0 0 0 0 0 0 0 0 0 0 0 0 0 0 0 0 0 0 0 0 0 0 0 0 0 0
0 0 0 0 0 0 0 0 0 0 0 0 0 0 0 0 0 0 0 0 0 0 0 0 0 0 0 0 0 0 0 0 0 0 0 0 0 0 0 0 0 0 0 0 0 0 0 0 0
0 0 0 0 0 0 0 0 0 0 0 0 0 0 0 0 0 0 0 0 0 0 0 0 0 0 0 0 0 0 0 0 0 0 0 0 0 0 0 0 0 0 0 0 0 0 0 0 0
0 0 0 0 0 0 0 0 0 0 0 0 0 0 0 0 0 0 0 0 0 0 0 0 0 0 0 0 0 0 0 0 0 0 0 0 0 0 0 0 0 0 0 0 0 0 0 0 0
0 0 0 0 0 0 0 0 0 0 0 0 0 0 0 0 0 0 0 0 0 0 0 0 0 0 0 0 0 0 0 0 0 0 0 0 0 0 0 0 0 0 0 0 0 0 0 0 0
0 0 0 0 0 0 0 0 0 0 0 0 0 0 0 0 0 0 0 0 0 0 -0 -0 -0 -0 -0 -0 -0 -0 0 0 0 0 0 0 0 0 0 0 0 0 0 0 0 0 0 0 0
0 0 0 0 0 0 0 0 0 0 0 0 0 0 0 0 0 0 0 0 -0 -0 -0 0 0 0 0 0 0 0 0 0 0 0 0 0 0 0 0 0 0 0 0 0 0 0 0 0 0
0 0 0 0 0 0 0 0 0 0 0 0 0 0 0 0 0 0 0 0 0 0 0 0 0 0 0 0 0 0 0 0 0 0 0 0 0 0 0 0 0 0 0 0 0 0 0 0 0
0 0 0 0 0 0 0 0 0 0 0 0 0 0 0 0 0 0 0 0 0 0 0 0 0 0 0 0 0 0 0 0 0 0 0 0 0 0 0 0 0 0 0 0 0 0 0 0 0
0 0 0 0 0 0 0 0 0 0 0 0 0 0 0 0 0 0 0 0 0 0 0 0 0 0 0 0 0 0 0 0 0 0 0 0 0 0 0 0 0 0 -0 -0 -0 0 0 0 0
Wind_Speed_500mb
9 8 8 3 8 10 3 4 3 3 3 3 2 2 4 4 5 7 3 6 5 17 30 45 44 40 37 31 27 25 25 24 22 21 18 17 16 16 15 11 6 7 7 7 5 4 6 7 8
5 3 4 5 10 8 8 7 3 4 5 3 1 2 1 1 3 3 5 4 4 11 23 42 45 43 39 35 29 27 25 25 23 20 21 21 18 15 13 14 15 8 8 10 7 5 5 5 5
2 5 3 8 7 7 7 5 5 3 6 2 2 2 3 3 4 2 4 4 7 12 16 34 45 45 42 37 33 31 30 27 26 25 22 18 16 18 19 19 19 16 7 9 10 9 9 8 9
2 3 8 8 2 7 10 10 7 6 1 2 2 3 1 6 3 5 3 5 7 13 17 28 42 45 44 41 37 34 33 29 26 26 25 24 23 25 27 30 30 21 11 11 12 11 11 11 13
7 6 8 5 7 8 2 6 6 3 2 5 3 2 7 10 10 4 1 4 6 12 18 24 35 43 44 44 41 39 37 33 29 28 27 27 30 31 33 35 31 22 17 14 14 13 12 12 13
5 5 9 0 8 9 6 0 8 4 5 1 3 8 6 6 8 7 3 5 8 11 16 23 29 39 44 45 43 42 41 38 33 30 27 28 33 15 17 21 22 21 18 16 13 13 13 13 14
8 7 7 6 6 8 5 2 6 4 1 3 1 2 10 9 10 11 11 13 14 14 18 23 29 34 41 45 45 44 44 42 39 36 33 33 38 28 21 18 22 22 19 18 15 13 13 13 13
4 9 1 5 5 5 16 14 5 7 5 7 1 5 8 20 21 21 17 17 20 20 21 25 28 34 39 43 47 48 48 46 44 42 39 42 42 35 30 19 22 22 21 19 16 14 14 14 14
1 8 2 6 4 6 20 13 11 15 11 11 10 18 27 29 23 26 28 27 26 25 27 30 32 35 39 42 46 48 51 50 48 45 44 47 47 42 36 26 24 25 23 21 18 18 19 20 19
7 7 12 7 7 4 10 8 26 10 19 41 42 33 28 30 28 30 34 41 42 38 33 32 36 38 39 44 47 51 52 52 51 50 49 51 51 48 42 36 32 30 28 25 22 21 23 22 21
8 9 7 7 9 8 12 19 8 9 11 41 54 55 47 40 39 39 42 44 46 40 35 35 33 38 41 44 48 54 57 55 52 52 53 53 53 52 51 46 40 36 34 31 28 25 26 25 23
4 18 22 15 30 16 8 12 17 18 47 50 46 45 38 35 44 50 38 34 38 40 37 36 36 32 35 39 46 51 57 59 59 58 58 57 53 52 56 53 49 43 39 36 34 29 32 30 28
7 8 15 20 33 31 27 27 22 52 44 36 33 27 21 21 22 23 23 28 30 38 40 41 43 37 34 38 40 44 52 55 58 59 58 59 56 57 58 50 49 47 43 39 38 36 37 36 34
2 10 23 24 47 38 18 15 1 24 23 29 23 30 24 24 29 29 35 42 36 33 43 43 44 46 39 40 41 40 44 48 51 52 52 56 57 57 57 55 50 49 46 43 42 41 41 41 41
7 10 16 26 11 8 2 5 14 24 33 34 25 24 29 24 18 21 16 18 28 35 36 42 42 38 36 35 39 43 39 42 47 47 46 50 56 58 57 63 55 49 46 46 47 48 49 49 49
4 5 6 7 3 1 11 16 17 27 35 36 34 31 11 7 10 9 11 11 11 16 26 28 37 37 34 32 34 39 40 40 45 47 46 47 49 52 55 55 60 49 47 50 52 53 53 53 53
7 6 9 16 4 2 5 13 21 43 36 45 31 5 10 12 13 12 13 12 12 15 18 19 20 26 26 21 33 37 38 38 41 44 45 44 45 45 44 50 55 47 45 52 54 55 54 54 55
10 8 8 11 9 7 12 17 25 45 44 20 1 19 22 23 25 19 15 12 9 9 8 7 15 21 19 18 23 29 30 32 34 35 35 37 40 42 43 48 46 46 52 55 56 56 56 57 55
4 6 12 11 13 4 15 14 29 29 29 9 32 34 35 36 32 30 29 24 18 11 8 9 9 12 13 16 17 18 19 22 23 25 29 31 35 39 40 42 48 47 54 55 54 57 59 62 58
9 8 13 15 8 3 10 25 11 23 16 26 36 37 38 38 39 42 45 47 47 40 33 24 19 11 6 5 8 10 11 15 17 19 22 25 27 31 35 37 44 47 51 53 54 56 60 62 61
10 10 9 15 10 6 8 15 5 10 30 37 37 37 39 42 45 47 53 59 60 61 57 50 41 32 22 11 3 1 7 9 15 19 17 20 20 21 24 30 35 43 48 52 54 56 58 61 62
10 10 9 5 4 7 5 9 11 6 13 20 32 37 38 41 43 46 49 53 57 57 54 54 51 48 43 33 24 18 9 6 6 5 10 20 25 27 26 26 30 38 45 49 51 54 59 59 62
13 3 1 1 3 4 8 1 13 15 5 8 20 31 34 35 36 40 43 43 48 46 47 45 41 41 40 39 40 35 28 22 16 13 12 13 16 21 25 28 34 37 37 41 46 50 55 60 63
6 7 12 8 6 2 13 13 10 9 12 13 22 29 29 29 32 36 37 37 40 37 35 34 33 33 30 28 27 27 26 27 23 22 19 18 19 18 19 21 24 26 32 41 46 46 51 57 63
7 10 6 7 4 10 7 6 12 14 1 32 34 35 29 27 28 29 29 29 29 28 28 28 26 26 25 23 21 22 22 19 19 22 25 25 26 29 32 31 28 26 28 32 37 39 48 51 58
10 15 9 10 6 7 11 10 7 7 24 42 42 36 29 24 20 19 19 20 21 22 22 23 25 26 26 26 28 29 29 28 28 26 25 25 25 25 26 29 34 37 35 33 36 39 44 46 51
7 7 6 9 4 4 9 2 4 8 9 25 32 29 24 19 14 8 9 15 17 20 21 20 18 18 19 22 24 23 25 29 30 32 32 33 34 34 30 24 25 30 32 35 40 41 40 44 50
8 12 6 3 2 10 10 10 10 17 17 14 20 28 26 20 12 7 6 9 7 6 6 8 9 13 18 18 20 22 25 28 31 34 38 37 39 42 44 45 45 40 37 38 38 38 40 46 47
1 5 4 8 10 10 4 10 6 17 24 24 30 34 32 26 20 16 14 10 8 2 5 7 8 11 13 17 21 25 28 31 33 34 37 42 46 49 51 54 56 56 53 53 52 48 50 52 50
7 13 13 12 11 8 5 16 2 13 28 39 40 39 36 29 25 24 19 14 10 6 5 5 7 12 13 15 21 25 29 32 37 41 46 49 53 54 57 58 61 64 65 65 65 64 61 62 63
Wind_Direction_500mb
328 298 315 64 58 65 304 266 139 64 18 196 279 81 176 245 162 213 205 219 184 171 182 190 197 201 205 210 210 201 196 198 199 198 201 198 192 189 188 198 199 179 167 154 148 125 121 126 131
339 337 53 79 83 72 284 277 121 211 188 134 82 97 357 165 180 217 183 266 209 177 193 192 199 205 210 215 216 219 218 214 214 212 212 209 204 208 200 186 189 195 214 196 187 171 163 152 160
4 22 49 89 107 161 178 239 198 288 156 139 86 268 301 219 202 233 248 267 253 202 191 202 204 209 214 217 220 220 220 227 211 214 218 222 207 215 218 216 216 231 243 212 214 213 204 205 210
211 37 57 79 206 247 173 206 215 138 144 131 79 340 260 252 253 314 292 295 244 234 216 203 208 212 214 217 220 222 226 227 221 207 224 233 236 235 233 227 236 243 251 226 234 235 233 234 227
38 51 50 45 286 281 266 160 112 58 291 217 210 267 274 241 230 159 328 342 282 235 230 215 213 215 217 218 219 219 221 226 226 225 224 238 248 254 244 237 240 247 252 241 243 243 245 239 236
74 72 61 181 281 290 304 261 109 52 38 335 313 305 302 257 213 212 189 332 305 252 240 228 221 221 223 224 223 222 224 226 225 227 228 249 255 256 248 231 234 242 253 251 248 247 245 241 231
94 76 185 212 249 315 239 145 121 167 68 98 122 280 293 290 272 261 258 299 297 261 245 237 234 227 228 229 229 227 227 228 228 230 238 241 254 263 264 253 238 246 249 246 244 240 233 218 212
69 93 13 278 308 325 352 331 330 326 319 137 313 234 285 330 307 291 276 273 288 276 260 250 241 237 234 230 230 231 231 232 232 233 231 235 247 256 259 263 261 248 244 246 239 234 224 218 218
44 60 225 243 29 296 343 3 336 322 287 296 245 280 301 301 320 286 282 295 288 281 280 265 248 243 240 240 238 233 229 232 234 234 231 233 243 250 254 257 264 257 247 239 231 226 220 221 224
103 118 225 202 162 275 294 276 308 300 306 292 292 303 306 293 317 310 287 293 289 283 289 284 262 250 245 240 238 240 229 230 230 233 233 237 243 248 252 254 258 258 254 246 236 228 225 227 233
167 194 224 258 273 282 292 293 277 307 299 296 305 314 308 301 300 294 293 287 290 288 277 279 279 260 252 247 242 238 236 237 236 237 238 241 244 247 251 253 255 256 252 249 240 235 236 237 241
170 249 247 271 288 298 287 292 301 257 277 302 312 316 313 297 295 302 298 302 297 289 291 278 269 264 257 255 252 244 237 238 240 241 241 241 236 240 252 253 255 255 252 248 244 237 237 239 241
207 277 269 273 288 288 282 267 268 281 297 301 317 356 3 349 330 322 317 312 296 276 271 271 265 266 266 257 254 252 245 241 242 242 243 244 234 240 252 255 252 252 253 249 245 240 242 243 244
240 298 290 288 281 282 265 282 224 280 305 309 301 341 349 344 338 313 292 294 303 290 273 265 262 256 271 267 265 262 256 248 244 244 244 244 248 247 254 260 252 251 253 254 251 246 245 245 246
310 316 316 280 277 236 228 315 224 297 298 292 290 348 338 344 322 315 317 304 292 291 282 266 256 251 262 275 270 265 267 263 253 249 248 249 254 258 261 258 261 257 257 257 254 249 245 243 244
333 36 325 276 360 350 149 259 276 308 297 287 309 341 341 360 4 343 325 311 302 301 288 277 252 233 245 272 268 263 265 269 265 259 257 256 258 260 263 250 266 258 259 261 257 255 251 248 247
348 224 215 306 307 93 197 255 268 294 291 295 325 23 73 65 48 20 354 335 319 301 294 278 245 220 218 239 252 250 256 265 268 265 263 262 258 256 258 259 262 254 262 266 265 260 257 254 252
217 218 244 243 270 37 269 251 258 276 292 301 134 112 90 76 58 45 35 24 3 324 310 286 228 221 215 213 232 245 252 258 260 261 264 264 263 260 262 259 259 261 260 267 265 262 259 260 261
172 216 244 264 259 246 272 279 293 318 277 298 118 102 90 80 74 68 63 58 59 76 102 104 127 167 193 189 203 226 250 259 262 259 268 272 272 271 267 265 260 258 265 268 268 266 262 260 259
227 239 259 272 266 211 314 294 29 22 31 93 113 105 98 93 84 75 71 70 67 67 66 66 74 93 121 177 221 233 235 234 235 244 254 265 272 275 277 275 271 273 271 274 269 266 264 263 258
227 201 241 239 339 281 344 296 132 65 78 80 86 94 88 83 78 73 69 65 64 61 58 55 53 52 51 46 59 171 239 238 242 244 256 258 265 271 276 278 279 278 276 273 275 275 271 267 263
273 204 221 212 95 239 42 283 314 150 83 72 89 94 95 92 85 78 72 67 62 58 55 51 51 51 50 46 42 43 46 352 359 318 262 262 266 267 258 261 266 270 275 277 277 275 274 272 268
227 128 102 142 183 41 306 116 266 117 130 114 103 108 105 97 89 81 74 71 69 64 57 51 48 45 42 37 40 40 36 29 6 328 301 298 290 286 282 272 265 265 271 279 277 274 270 269 270
115 38 32 54 118 284 223 170 274 191 186 147 147 130 118 107 93 86 78 69 61 55 52 50 43 45 41 38 38 37 36 36 27 22 10 356 339 323 310 304 293 288 283 279 272 272 271 270 268
95 70 308 337 356 231 128 130 249 322 166 156 151 141 130 117 102 90 76 61 52 46 43 39 38 38 38 35 40 43 41 39 34 24 17 4 359 358 356 345 328 309 300 294 291 287 273 271 272
169 160 161 222 225 279 322 244 290 9 91 138 144 139 137 127 110 93 71 51 40 39 33 27 24 24 24 25 27 24 21 23 27 29 28 25 22 11 357 350 341 337 332 317 300 293 289 283 274
179 173 161 112 9 270 237 336 185 86 81 132 147 154 151 148 139 103 29 9 19 17 16 18 22 27 26 25 20 14 12 9 10 7 1 0 357 357 357 348 337 335 331 327 323 318 309 293 285
150 161 80 29 179 251 285 260 216 194 185 184 173 175 172 175 189 230 295 313 323 341 9 29 34 32 32 29 22 14 10 1 355 354 349 349 346 340 339 337 334 330 328 322 317 316 313 307 303
149 198 113 149 163 182 240 257 254 177 187 187 193 195 195 201 217 227 242 254 271 270 103 82 62 44 21 1 355 353 353 348 343 341 337 337 336 332 330 326 323 322 322 319 316 313 309 306 302
193 199 172 203 218 234 186 257 10 178 166 179 195 209 214 219 221 228 231 224 217 190 145 111 57 17 6 0 355 349 341 335 333 333 332 330 326 323 322 319 315 314 313 312 312 311 311 306 302
Wind_Speed_850mb
9 8 8 3 8 10 3 4 3 3 3 3 2 2 4 4 5 7 3 6 5 17 30 45 44 40 37 31 27 25 25 24 22 21 18 17 16 16 15 11 6 7 7 7 5 4 6 7 8
5 3 4 5 10 8 8 7 3 4 5 3 1 2 1 1 3 3 5 4 4 11 23 42 45 43 39 35 29 27 25 25 23 20 21 21 18 15 13 14 15 8 8 10 7 5 5 5 5
2 5 3 8 7 7 7 5 5 3 6 2 2 2 3 3 4 2 4 4 7 12 16 34 45 45 42 37 33 31 30 27 26 25 22 18 16 18 19 19 19 16 7 9 10 9 9 8 9
2 3 8 8 2 7 10 10 7 6 1 2 2 3 1 6 3 5 3 5 7 13 17 28 42 45 44 41 37 34 33 29 26 26 25 24 23 25 27 30 30 21 11 11 12 11 11 11 13
7 6 8 5 7 8 2 6 6 3 2 5 3 2 7 10 10 4 1 4 6 12 18 24 35 43 44 44 41 39 37 33 29 28 27 27 30 31 33 35 31 22 17 14 14 13 12 12 13
5 5 9 0 8 9 6 0 8 4 5 1 3 8 6 6 8 7 3 5 8 11 16 23 29 39 44 45 43 42 41 38 33 30 27 28 33 15 17 21 22 21 18 16 13 13 13 13 14
8 7 7 6 6 8 5 2 6 4 1 3 1 2 10 9 10 11 11 13 14 14 18 23 29 34 41 45 45 44 44 42 39 36 33 33 38 28 21 18 22 22 19 18 15 13 13 13 13
4 9 1 5 5 5 16 14 5 7 5 7 1 5 8 20 21 21 17 17 20 20 21 25 28 34 39 43 47 48 48 46 44 42 39 42 42 35 30 19 22 22 21 19 16 14 14 14 14
1 8 2 6 4 6 20 13 11 15 11 11 10 18 27 29 23 26 28 27 26 25 27 30 32 35 39 42 46 48 51 50 48 45 44 47 47 42 36 26 24 25 23 21 18 18 19 20 19
7 7 12 7 7 4 10 8 26 10 19 41 42 33 28 30 28 30 34 41 42 38 33 32 36 38 39 44 47 51 52 52 51 50 49 51 51 48 42 36 32 30 28 25 22 21 23 22 21
8 9 7 7 9 8 12 19 8 9 11 41 54 55 47 40 39 39 42 44 46 40 35 35 33 38 41 44 48 54 57 55 52 52 53 53 53 52 51 46 40 36 34 31 28 25 26 25 23
4 18 22 15 30 16 8 12 17 18 47 50 46 45 38 35 44 50 38 34 38 40 37 36 36 32 35 39 46 51 57 59 59 58 58 57 53 52 56 53 49 43 39 36 34 29 32 30 28
7 8 15 20 33 31 27 27 22 52 44 36 33 27 21 21 22 23 23 28 30 38 40 41 43 37 34 38 40 44 52 55 58 59 58 59 56 57 58 50 49 47 43 39 38 36 37 36 34
2 10 23 24 47 38 18 15 1 24 23 29 23 30 24 24 29 29 35 42 36 33 43 43 44 46 39 40 41 40 44 48 51 52 52 56 57 57 57 55 50 49 46 43 42 41 41 41 41
7 10 16 26 11 8 2 5 14 24 33 34 25 24 29 24 18 21 16 18 28 35 36 42 42 38 36 35 39 43 39 42 47 47 46 50 56 58 57 63 55 49 46 46 47 48 49 49 49
4 5 6 7 3 1 11 16 17 27 35 36 34 31 11 7 10 9 11 11 11 16 26 28 37 37 34 32 34 39 40 40 45 47 46 47 49 52 55 55 60 49 47 50 52 53 53 53 53
7 6 9 16 4 2 5 13 21 43 36 45 31 5 10 12 13 12 13 12 12 15 18 19 20 26 26 21 33 37 38 38 41 44 45 44 45 45 44 50 55 47 45 52 54 55 54 54 55
10 8 8 11 9 7 12 17 25 45 44 20 1 19 22 23 25 19 15 12 9 9 8 7 15 21 19 18 23 29 30 32 34 35 35 37 40 42 43 48 46 46 52 55 56 56 56 57 55
4 6 12 11 13 4 15 14 29 29 29 9 32 34 35 36 32 30 29 24 18 11 8 9 9 12 13 16 17 18 19 22 23 25 29 31 35 39 40 42 48 47 54 55 54 57 59 62 58
9 8 13 15 8 3 10 25 11 23 16 26 36 37 38 38 39 42 45 47 47 40 33 24 19 11 6 5 8 10 11 15 17 19 22 25 27 31 35 37 44 47 51 53 54 56 60 62 61
10 10 9 15 10 6 8 15 5 10 30 37 37 37 39 42 45 47 53 59 60 61 57 50 41 32 22 11 3 1 7 9 15 19 17 20 20 21 24 30 35 43 48 52 54 56 58 61 62
10 10 9 5 4 7 5 9 11 6 13 20 32 37 38 41 43 46 49 53 57 57 54 54 51 48 43 33 24 18 9 6 6 5 10 20 25 27 26 26 30 38 45 49 51 54 59 59 62
13 3 1 1 3 4 8 1 13 15 5 8 20 31 34 35 36 40 43 43 48 46 47 45 41 41 40 39 40 35 28 22 16 13 12 13 16 21 25 28 34 37 37 41 46 50 55 60 63
6 7 12 8 6 2 13 13 10 9 12 13 22 29 29 29 32 36 37 37 40 37 35 34 33 33 30 28 27 27 26 27 23 22 19 18 19 18 19 21 24 26 32 41 46 46 51 57 63
7 10 6 7 4 10 7 6 12 14 1 32 34 35 29 27 28 29 29 29 29 28 28 28 26 26 25 23 21 22 22 19 19 22 25 25 26 29 32 31 28 26 28 32 37 39 48 51 58
10 15 9 10 6 7 11 10 7 7 24 42 42 36 29 24 20 19 19 20 21 22 22 23 25 26 26 26 28 29 29 28 28 26 25 25 25 25 26 29 34 37 35 33 36 39 44 46 51
7 7 6 9 4 4 9 2 4 8 9 25 32 29 24 19 14 8 9 15 17 20 21 20 18 18 19 22 24 23 25 29 30 32 32 33 34 34 30 24 25 30 32 35 40 41 40 44 50
8 12 6 3 2 10 10 10 10 17 17 14 20 28 26 20 12 7 6 9 7 6 6 8 9 13 18 18 20 22 25 28 31 34 38 37 39 42 44 45 45 40 37 38 38 38 40 46 47
1 5 4 8 10 10 4 10 6 17 24 24 30 34 32 26 20 16 14 10 8 2 5 7 8 11 13 17 21 25 28 31 33 34 37 42 46 49 51 54 56 56 53 53 52 48 50 52 50
7 13 13 12 11 8 5 16 2 13 28 39 40 39 36 29 25 24 19 14 10 6 5 5 7 12 13 15 21 25 29 32 37 41 46 49 53 54 57 58 61 64 65 65 65 64 61 62 63
Wind_Direction_850mb
328 298 315 64 58 65 304 266 139 64 18 196 279 81 176 245 162 213 205 219 184 171 182 190 197 201 205 210 210 201 196 198 199 198 201 198 192 189 188 198 199 179 167 154 148 125 121 126 131
339 337 53 79 83 72 284 277 121 211 188 134 82 97 357 165 180 217 183 266 209 177 193 192 199 205 210 215 216 219 218 214 214 212 212 209 204 208 200 186 189 195 214 196 187 171 163 152 160
4 22 49 89 107 161 178 239 198 288 156 139 86 268 301 219 202 233 248 267 253 202 191 202 204 209 214 217 220 220 220 227 211 214 218 222 207 215 218 216 216 231 243 212 214 213 204 205 210
211 37 57 79 206 247 173 206 215 138 144 131 79 340 260 252 253 314 292 295 244 234 216 203 208 212 214 217 220 222 226 227 221 207 224 233 236 235 233 227 236 243 251 226 234 235 233 234 227
38 51 50 45 286 281 266 160 112 58 291 217 210 267 274 241 230 159 328 342 282 235 230 215 213 215 217 218 219 219 221 226 226 225 224 238 248 254 244 237 240 247 252 241 243 243 245 239 236
74 72 61 181 281 290 304 261 109 52 38 335 313 305 302 257 213 212 189 332 305 252 240 228 221 221 223 224 223 222 224 226 225 227 228 249 255 256 248 231 234 242 253 251 248 247 245 241 231
94 76 185 212 249 315 239 145 121 167 68 98 122 280 293 290 272 261 258 299 297 261 245 237 234 227 228 229 229 227 227 228 228 230 238 241 254 263 264 253 238 246 249 246 244 240 233 218 212
69 93 13 278 308 325 352 331 330 326 319 137 313 234 285 330 307 291 276 273 288 276 260 250 241 237 234 230 230 231 231 232 232 233 231 235 247 256 259 263 261 248 244 246 239 234 224 218 218
44 60 225 243 29 296 343 3 336 322 287 296 245 280 301 301 320 286 282 295 288 281 280 265 248 243 240 240 238 233 229 232 234 234 231 233 243 250 254 257 264 257 247 239 231 226 220 221 224
103 118 225 202 162 275 294 276 308 300 306 292 292 303 306 293 317 310 287 293 289 283 289 284 262 250 245 240 238 240 229 230 230 233 233 237 243 248 252 254 258 258 254 246 236 228 225 227 233
167 194 224 258 273 282 292 293 277 307 299 296 305 314 308 301 300 294 293 287 290 288 277 279 279 260 252 247 242 238 236 237 236 237 238 241 244 247 251 253 255 256 252 249 240 235 236 237 241
170 249 247 271 288 298 287 292 301 257 277 302 312 316 313 297 295 302 298 302 297 289 291 278 269 264 257 255 252 244 237 238 240 241 241 241 236 240 252 253 255 255 252 248 244 237 237 239 241
207 277 269 273 288 288 282 267 268 281 297 301 317 356 3 349 330 322 317 312 296 276 271 271 265 266 266 257 254 252 245 241 242 242 243 244 234 240 252 255 252 252 253 249 245 240 242 243 244
240 298 290 288 281 282 265 282 224 280 305 309 301 341 349 344 338 313 292 294 303 290 273 265 262 256 271 267 265 262 256 248 244 244 244 244 248 247 254 260 252 251 253 254 251 246 245 245 246
310 316 316 280 277 236 228 315 224 297 298 292 290 348 338 344 322 315 317 304 292 291 282 266 256 251 262 275 270 265 267 263 253 249 248 249 254 258 261 258 261 257 257 257 254 249 245 243 244
333 36 325 276 360 350 149 259 276 308 297 287 309 341 341 360 4 343 325 311 302 301 288 277 252 233 245 272 268 263 265 269 265 259 257 256 258 260 263 250 266 258 259 261 257 255 251 248 247
348 224 215 306 307 93 197 255 268 294 291 295 325 23 73 65 48 20 354 335 319 301 294 278 245 220 218 239 252 250 256 265 268 265 263 262 258 256 258 259 262 254 262 266 265 260 257 254 252
217 218 244 243 270 37 269 251 258 276 292 301 134 112 90 76 58 45 35 24 3 324 310 286 228 221 215 213 232 245 252 258 260 261 264 264 263 260 262 259 259 261 260 267 265 262 259 260 261
172 216 244 264 259 246 272 279 293 318 277 298 118 102 90 80 74 68 63 58 59 76 102 104 127 167 193 189 203 226 250 259 262 259 268 272 272 271 267 265 260 258 265 268 268 266 262 260 259
227 239 259 272 266 211 314 294 29 22 31 93 113 105 98 93 84 75 71 70 67 67 66 66 74 93 121 177 221 233 235 234 235 244 254 265 272 275 277 275 271 273 271 274 269 266 264 263 258
227 201 241 239 339 281 344 296 132 65 78 80 86 94 88 83 78 73 69 65 64 61 58 55 53 52 51 46 59 171 239 238 242 244 256 258 265 271 276 278 279 278 276 273 275 275 271 267 263
273 204 221 212 95 239 42 283 314 150 83 72 89 94 95 92 85 78 72 67 62 58 55 51 51 51 50 46 42 43 46 352 359 318 262 262 266 267 258 261 266 270 275 277 277 275 274 272 268
227 128 102 142 183 41 306 116 266 117 130 114 103 108 105 97 89 81 74 71 69 64 57 51 48 45 42 37 40 40 36 29 6 328 301 298 290 286 282 272 265 265 271 279 277 274 270 269 270
115 38 32 54 118 284 223 170 274 191 186 147 147 130 118 107 93 86 78 69 61 55 52 50 43 45 41 38 38 37 36 36 27 22 10 356 339 323 310 304 293 288 283 279 272 272 271 270 268
95 70 308 337 356 231 128 130 249 322 166 156 151 141 130 117 102 90 76 61 52 46 43 39 38 38 38 35 40 43 41 39 34 24 17 4 359 358 356 345 328 309 300 294 291 287 273 271 272
169 160 161 222 225 279 322 244 290 9 91 138 144 139 137 127 110 93 71 51 40 39 33 27 24 24 24 25 27 24 21 23 27 29 28 25 22 11 357 350 341 337 332 317 300 293 289 283 274
179 173 161 112 9 270 237 336 185 86 81 132 147 154 151 148 139 103 29 9 19 17 16 18 22 27 26 25 20 14 12 9 10 7 1 0 357 357 357 348 337 335 331 327 323 318 309 293 285
150 161 80 29 179 251 285 260 216 194 185 184 173 175 172 175 189 230 295 313 323 341 9 29 34 32 32 29 22 14 10 1 355 354 349 349 346 340 339 337 334 330 328 322 317 316 313 307 303
149 198 113 149 163 182 240 257 254 177 187 187 193 195 195 201 217 227 242 254 271 270 103 82 62 44 21 1 355 353 353 348 343 341 337 337 336 332 330 326 323 322 322 319 316 313 309 306 302
193 199 172 203 218 234 186 257 10 178 166 179 195 209 214 219 221 228 231 224 217 190 145 111 57 17 6 0 355 349 341 335 333 333 332 330 326 323 322 319 315 314 313 312 312 311 311 306 302